sat.trackr.live / text

‹ back to catalog

STARLINK-35821

NORAD 66372 · 2025-254AA

PAYLOAD ACTIVE UNKNOWN

§ Identity

Operator
Country
US
Launch date
2025-11-06
Launch site
AFWTR
Launch vehicle
Mass (kg)
RCS (m²)

Purposes: comms

External: N2YO · Heavens-Above · Gunter

§ Orbital elements

Epoch: 2026-05-25T04:58:43.757760Z

Period
94.10 min
Inclination
53.1579°
Eccentricity
0.0001275
Mean motion
15.30212341 rev/d
Perigee alt
474.3 km
Apogee alt
476.1 km
Semi-major
6,853.3 km
B*
3.7692e-4
RAAN
234.6682°
Arg perigee
105.2354°
Mean anomaly
254.8788°
Rev number
3,072

§ Raw data

STARLINK-358211 66372U 25254AA  26145.20745090  .00010825  00000+0  37692-3 0  99922 66372  53.1579 234.6682 0001275 105.2354 254.8788 15.30212341 30728

JSON: /api/v1/satellites/66372 · /tle

For live sub-satellite position, see the globe view (requires WebGL).

§ Visibility from observer

Set your observer location to see the next 7 days of passes ≥ 10°. The values pass through the URL so the page stays shareable.

No JS? Fill the form by hand. The geolocation button needs JavaScript.